Location: Unspecified
(42.9300°N, 71.1866°W)
Time: 06:25:17
(UTC-05:00)

CZ-3 Stage 3 - Visible Passes

Search period start: 22 December 2014 00:00
Search period end: 01 January 2015 00:00
Orbit: 433 x 34798 km, 31.0° (Epoch: 20 December)

Date Brightness Start Highest point End Pass type
(mag) Time Alt. Az. Time Alt. Az. Time Alt. Az.
22 Dec 9.1 15:07:27 10° E 18:23:39 31° E 18:56:30 29° E visible
23 Dec 6.4 18:05:11 10° SSW 02:45:55 58° SSW 02:59:29 10° SE visible
24 Dec 7.2 14:56:17 10° SE 23:19:39 21° E 23:23:02 10° E visible
25 Dec 9.0 14:51:44 10° E 18:17:52 33° E 18:56:46 29° E visible
26 Dec 6.2 17:59:42 10° SSW 02:43:34 56° SSW 02:54:49 10° SE visible
27 Dec 7.3 14:46:00 10° SE 23:17:15 14° E 23:18:33 10° E visible
28 Dec 8.9 14:36:07 10° E 18:12:04 34° E 18:56:38 29° E visible
29 Dec 6.0 17:54:18 10° SSW 02:41:03 52° S 02:50:09 10° SE visible
30 Dec 7.3 14:36:14 10° SE 22:21:47 69° SSE 22:21:47 69° SSE visible
31 Dec 8.8 14:20:34 10° E 18:06:15 36° E 18:56:07 29° E visible
